Weather History for Williamsburg, VA

Change the Weather History Date:

Friday, January 10, 2014

  Actual Average Record
Temperature  
Mean Temperature 39 °F -  
Max Temperature 51 °F 45 °F 69 °F (1957)
Min Temperature 30 °F 26 °F 2 °F (1970)
Degree Days  
Heating Degree Days 26    
Moisture  
Dew Point 38 °F    
Average Humidity 90    
Maximum Humidity 100    
Minimum Humidity 81    
Precipitation  
Precipitation 0.14 in - - ()
Sea Level Pressure  
Sea Level Pressure 30.36 in    
Wind  
Wind Speed 1 mph (East)    
Max Wind Speed 8 mph    
Max Gust Speed -    
Visibility 6 miles    
Events      
Averages and records for this station are not official NWS values.
T = Trace of Precipitation, MM = Missing Value Source: NWS Daily Summary

Daily Weather History Graph

Daily Weather History Graph

Search for Another Location

Airport:

Trip Planner

Search our weather history database for the weather conditions in past years. The results will help you decide how hot, cold, wet, or windy it might be!

Date:

Astronomy

Jan. 10, 2014 Rise Set
Actual Time 7:20 AM EST 5:08 PM EST
Civil Twilight 6:52 AM EST 5:36 PM EST
Nautical Twilight 6:19 AM EST 6:09 PM EST
Astronomical Twilight 5:48 AM EST 6:40 PM EST
Moon 1:09 PM EST (1/10) 2:28 AM EST (1/10)
Length of Visible Light 10h 44m
Length of Day
9h 47m
Waxing Gibbous, 75% of the Moon is Illuminated
Jan 10
Waxing Gibbous
Jan 15
Full
Jan 24
Last Quarter
Jan 30
New
Feb 6
First Quarter

Hourly Weather History & Observations

Time (EST) Temp. Windchill Dew Point Humidity Pressure Visibility Wind Dir Wind Speed Gust Speed Precip Events Conditions
12:15 AM 33.8 °F - 30.2 °F 87% 30.52 in 10.0 mi Calm Calm - N/A   Unknown
12:35 AM 32.0 °F - 28.4 °F 87% 30.50 in 10.0 mi Calm Calm - N/A   Unknown
12:55 AM 30.2 °F - 28.4 °F 93% 30.50 in 10.0 mi Calm Calm - N/A   Unknown
1:15 AM 32.0 °F 28.7 °F 30.2 °F 93% 30.48 in 10.0 mi NE 3.5 mph - N/A   Unknown
1:35 AM 33.8 °F - 30.2 °F 87% 30.48 in 10.0 mi Calm Calm - N/A   Unknown
1:55 AM 33.8 °F - 30.2 °F 87% 30.48 in 10.0 mi Calm Calm - N/A   Unknown
2:15 AM 33.8 °F - 30.2 °F 87% 30.48 in 10.0 mi Calm Calm - N/A   Unknown
2:35 AM 33.8 °F - 32.0 °F 93% 30.47 in 10.0 mi Calm Calm - N/A   Unknown
2:55 AM 35.6 °F - 33.8 °F 93% 30.47 in 10.0 mi Calm Calm - N/A   Unknown
3:15 AM 35.6 °F - 32.0 °F 87% 30.47 in 10.0 mi Calm Calm - N/A   Unknown
3:35 AM 35.6 °F - 33.8 °F 93% 30.46 in 10.0 mi Calm Calm - N/A   Unknown
3:55 AM 35.6 °F 32.8 °F 33.8 °F 93% 30.45 in 10.0 mi NNE 3.5 mph - N/A   Unknown
4:15 AM 35.6 °F - 33.8 °F 93% 30.44 in 10.0 mi Calm Calm - N/A   Unknown
4:35 AM 37.4 °F 34.9 °F 33.8 °F 87% 30.44 in 10.0 mi North 3.5 mph - N/A   Unknown
4:55 AM 37.4 °F - 33.8 °F 87% 30.44 in 10.0 mi Calm Calm - N/A   Unknown
5:15 AM 37.4 °F - 33.8 °F 87% 30.43 in 10.0 mi Calm Calm - N/A   Unknown
5:35 AM 37.4 °F - 33.8 °F 87% 30.43 in 10.0 mi Calm Calm - N/A   Unknown
5:55 AM 37.4 °F - 33.8 °F 87% 30.42 in 10.0 mi Calm Calm - N/A   Unknown
6:15 AM 37.4 °F - 33.8 °F 87% 30.42 in 10.0 mi Calm Calm - N/A   Unknown
6:35 AM 37.4 °F - 33.8 °F 87% 30.43 in 10.0 mi Calm Calm - N/A   Unknown
6:55 AM 37.4 °F - 33.8 °F 87% 30.42 in 10.0 mi Calm Calm - N/A   Unknown
7:15 AM 37.4 °F - 33.8 °F 87% 30.42 in 10.0 mi Calm Calm - N/A   Unknown
7:35 AM 37.4 °F - 33.8 °F 87% 30.41 in 10.0 mi Calm Calm - N/A   Unknown
7:55 AM 39.2 °F - 35.6 °F 87% 30.41 in 7.0 mi Calm Calm - N/A   Unknown
8:15 AM 39.2 °F - 35.6 °F 87% 30.42 in 10.0 mi Calm Calm - N/A   Unknown
8:35 AM 39.2 °F 35.9 °F 35.6 °F 87% 30.43 in 10.0 mi North 4.6 mph - N/A   Unknown
8:55 AM 39.2 °F 37.0 °F 35.6 °F 87% 30.43 in 10.0 mi North 3.5 mph - N/A   Unknown
9:15 AM 39.2 °F - 35.6 °F 87% 30.43 in 10.0 mi Calm Calm - N/A   Unknown
9:35 AM 39.2 °F 37.0 °F 35.6 °F 87% 30.43 in 7.0 mi North 3.5 mph - N/A   Unknown
9:55 AM 39.2 °F 35.0 °F 35.6 °F 87% 30.44 in 10.0 mi North 5.8 mph - N/A   Unknown
10:15 AM 39.2 °F - 35.6 °F 87% 30.44 in 10.0 mi Calm Calm - N/A   Unknown
10:35 AM 39.2 °F - 35.6 °F 87% 30.43 in 10.0 mi Calm Calm - N/A   Unknown
10:55 AM 41.0 °F - 35.6 °F 81% 30.42 in 10.0 mi Calm Calm - N/A   Unknown
11:15 AM 41.0 °F - 35.6 °F 81% 30.40 in 10.0 mi Calm Calm - N/A   Unknown
11:35 AM 41.0 °F 37.1 °F 35.6 °F 81% 30.40 in 10.0 mi North 5.8 mph - N/A   Unknown
11:55 AM 41.0 °F 39.0 °F 35.6 °F 81% 30.38 in 10.0 mi NNE 3.5 mph - N/A   Unknown
12:15 PM 41.0 °F 38.0 °F 35.6 °F 81% 30.37 in 10.0 mi NNE 4.6 mph - N/A   Unknown
12:35 PM 41.0 °F 39.0 °F 37.4 °F 87% 30.36 in 7.0 mi NNE 3.5 mph - N/A   Unknown
12:55 PM 41.0 °F - 37.4 °F 87% 30.35 in 7.0 mi Calm Calm - N/A   Unknown
1:15 PM 41.0 °F - 37.4 °F 87% 30.35 in 7.0 mi Calm Calm - N/A   Unknown
1:35 PM 41.0 °F - 37.4 °F 87% 30.35 in 2.0 mi Calm Calm - N/A   Unknown
1:55 PM 41.0 °F - 37.4 °F 87% 30.35 in 2.0 mi Calm Calm - 0.01 in   Unknown
2:15 PM 41.0 °F - 39.2 °F 93% 30.34 in 1.0 mi Calm Calm - 0.02 in   Unknown
2:35 PM 41.0 °F - 39.2 °F 93% 30.34 in 1.2 mi Calm Calm - 0.04 in   Unknown
2:55 PM 41.0 °F - 39.2 °F 93% 30.33 in 0.2 mi Calm Calm - 0.06 in   Unknown
3:15 PM 41.0 °F 39.0 °F 39.2 °F 93% 30.32 in 0.8 mi East 3.5 mph - 0.02 in   Unknown
3:35 PM 42.8 °F - 39.2 °F 87% 30.32 in 1.0 mi Calm Calm - 0.03 in   Unknown
3:55 PM 42.8 °F - 39.2 °F 87% 30.32 in 1.2 mi Calm Calm - 0.03 in   Unknown
4:15 PM 42.8 °F - 41.0 °F 93% 30.31 in 1.0 mi Calm Calm - N/A   Unknown
4:35 PM 42.8 °F 41.1 °F 41.0 °F 93% 30.31 in 1.0 mi East 3.5 mph - N/A   Unknown
4:55 PM 42.8 °F 41.1 °F 41.0 °F 93% 30.30 in 1.0 mi ESE 3.5 mph - N/A   Unknown
5:15 PM 42.8 °F 41.1 °F 39.2 °F 87% 30.29 in 1.0 mi ENE 3.5 mph - N/A   Unknown
5:35 PM 42.8 °F - 41.0 °F 93% 30.28 in 1.5 mi Calm Calm - 0.01 in   Unknown
5:55 PM 42.8 °F - 41.0 °F 93% 30.28 in 1.2 mi Calm Calm - 0.01 in   Unknown
6:15 PM 42.8 °F 39.3 °F 41.0 °F 93% 30.26 in 1.8 mi SE 5.8 mph - N/A   Unknown
6:35 PM 42.8 °F - 42.8 °F 100% 30.26 in 1.5 mi Calm Calm - N/A   Unknown
6:55 PM 42.8 °F - 41.0 °F 93% 30.26 in 1.2 mi Calm Calm - N/A   Unknown
7:15 PM 42.8 °F - 42.8 °F 100% 30.26 in 1.0 mi Calm Calm - N/A   Unknown
7:35 PM 42.8 °F - 42.8 °F 100% 30.25 in 1.8 mi Calm Calm - N/A   Unknown
7:55 PM 42.8 °F - 42.8 °F 100% 30.25 in 1.0 mi Calm Calm - 0.01 in   Unknown
8:15 PM 42.8 °F 39.3 °F 42.8 °F 100% 30.24 in 1.2 mi SE 5.8 mph - N/A   Unknown
8:35 PM 44.6 °F 40.7 °F 42.8 °F 93% 30.24 in 1.0 mi ESE 6.9 mph - 0.01 in   Unknown
8:55 PM 44.6 °F 40.7 °F 44.6 °F 100% 30.21 in 1.8 mi SE 6.9 mph - 0.01 in   Unknown
9:15 PM 46.4 °F 43.5 °F 44.6 °F 93% 30.20 in 1.8 mi SE 5.8 mph - N/A   Unknown
9:35 PM 46.4 °F 43.5 °F 46.4 °F 100% 30.20 in 4.0 mi SSE 5.8 mph - N/A   Unknown
9:55 PM 46.4 °F - 44.6 °F 93% 30.19 in 3.0 mi Calm Calm - N/A   Unknown
10:15 PM 46.4 °F 43.5 °F 44.6 °F 93% 30.19 in 2.0 mi SSE 5.8 mph - N/A   Unknown
10:35 PM 46.4 °F 42.9 °F 44.6 °F 93% 30.18 in 1.5 mi SSE 6.9 mph - N/A   Unknown
10:55 PM 48.2 °F - 46.4 °F 93% 30.17 in 1.5 mi SSE 5.8 mph - N/A   Unknown
11:15 PM 48.2 °F - 46.4 °F 93% 30.16 in 2.0 mi SE 3.5 mph - N/A   Unknown
11:35 PM 48.2 °F - 46.4 °F 93% 30.15 in 1.8 mi SSE 5.8 mph - N/A   Unknown
11:55 PM 51.8 °F - 51.8 °F 100% 30.14 in 5.0 mi SSE 8.1 mph - 0.01 in   Unknown